CAPE
1414 1382 1432 1776 1705 1534 1429 1418 1406 1412 1369 1304 1306 1262 1203 1153 1051 1075 1023 947 956 916 838 785 785 904 880 818 758 631 648 640 596 567 581 598 590 587 588 557 598 598 593 575 620 816 690 725 826 854 971 1046 968 983 1074 1128 985 932 902 1046 977 930 1042 1102 942 1182 1133 1071 1128 1047 1052 870 865 1000 945 992 879 940 1081 1029 928 917 870 855 860
1389 1403 1483 1592 1635 1505 1484 1446 1404 1446 1444 1342 1272 1236 1216 1089 1040 980 999 916 876 837 748 773 805 828 772 670 660 659 639 590 536 514 536 546 560 576 577 588 602 641 671 689 858 876 777 1054 956 826 1089 978 766 1066 1122 983 988 850 1055 1045 958 956 1103 1148 1167 1132 1078 977 1046 942 945 1060 813 878 1053 1077 981 886 1100 1277 1120 884 956 1001 1004
1424 1442 1464 1544 1555 1574 1480 1470 1448 1400 1463 1452 1284 1187 1145 1043 890 870 818 731 735 758 806 752 718 706 682 681 682 628 588 557 522 505 498 508 517 537 765 757 667 668 785 861 887 896 915 851 1077 1067 1034 1041 1050 1131 968 894 872 922 894 1089 1017 988 1058 1124 1094 1027 1064 1059 1271 1201 1021 1001 927 875 918 1046 1072 1031 1080 1120 1234 1170 989 893 831
1411 1404 1423 1511 1656 1550 1541 1446 1438 1416 1390 1321 1177 1093 983 927 877 792 760 736 726 764 779 810 810 772 709 681 628 566 530 512 502 499 490 496 512 593 881 1049 1043 1043 1001 887 1059 1114 1018 1105 1151 1025 1014 979 1024 970 903 887 849 835 956 932 1036 1038 1082 1105 1032 1019 1193 1197 1133 867 885 847 841 892 952 1050 1064 1100 1095 1078 1137 1064 1055 964 816
1318 1346 1329 1459 1433 1548 1523 1472 1406 1288 1330 1207 1131 1030 978 884 839 788 819 771 802 761 784 808 819 738 728 669 608 543 501 457 467 475 469 602 685 578 740 625 966 831 834 1140 1055 856 968 1010 1008 1080 1052 1084 1129 1137 1059 1029 1070 1132 1048 1163 1104 1028 1031 1014 992 1170 1196 1220 978 737 771 834 839 966 996 1100 1118 1224 1233 1155 1096 1065 1074 967 969
1252 1316 1372 1347 1372 1524 1554 1523 1408 1367 1298 1158 1042 1013 926 842 906 878 881 853 800 821 807 816 745 720 725 725 681 587 556 541 511 478 592 547 551 880 770 690 922 972 1091 1143 1041 1006 1065 1140 1065 1062 1130 1118 1068 1129 1170 1181 1102 1052 1029 1117 1106 1057 996 1079 1032 1219 1095 893 708 742 791 819 824 839 1027 973 1024 1163 1113 1135 883 946 1009 1006 927
1284 1345 1332 1326 1370 1483 1558 1501 1387 1332 1217 1153 1013 951 866 866 890 892 836 809 763 838 785 737 710 725 725 675 622 581 581 627 662 556 575 717 638 790 929 889 1030 771 1170 1120 872 829 1217 1060 1080 1102 1161 1093 1089 1092 1092 1015 1130 1097 1024 1242 1153 1102 1073 988 1169 1184 844 563 622 677 704 729 817 822 806 871 966 1136 1186 1129 1024 1018 886 947 1092
1301 1315 1314 1327 1358 1501 1533 1459 1367 1266 1220 1068 1016 1000 977 908 835 778 810 775 845 802 790 736 735 766 729 707 670 646 701 721 683 778 491 596 865 1181 1314 1284 904 962 1169 1099 1007 904 963 1065 1089 1120 1199 1265 1204 1207 1135 1023 985 1007 989 1106 998 984 1123 1146 1162 1122 796 518 553 654 730 761 780 756 913 885 951 971 833 1098 978 848 917 1197 1133
1282 1311 1318 1318 1367 1514 1519 1401 1321 1261 1177 1118 1041 988 863 797 851 814 836 880 804 782 787 810 852 820 766 713 694 778 819 796 777 699 632 684 811 997 1080 976 862 926 1269 1254 1250 1139 1127 1166 1168 1267 1265 1258 1279 1228 1160 990 915 914 849 1135 1102 1080 1088 1120 1105 772 574 578 588 602 638 680 739 786 932 943 946 835 909 779 1016 884 945 1027 1117
1289 1304 1299 1322 1355 1554 1503 1380 1281 1280 1215 1128 1037 902 843 849 820 812 845 809 801 802 867 893 886 869 847 862 822 892 871 859 794 538 577 840 864 963 678 908 994 856 983 1194 1123 1183 1175 1245 1292 1292 1193 1138 1037 1105 1110 1127 877 864 826 995 828 930 1140 1163 940 674 595 624 677 712 968 913 725 676 860 871 850 880 719 668 633 782 795 864 926
1281 1265 1284 1295 1390 1570 1504 1378 1277 1201 1232 1075 989 905 876 817 811 823 833 831 829 894 979 972 947 984 997 911 866 853 860 938 976 880 714 723 824 976 951 950 1065 994 1025 1112 1142 1144 1290 1454 1354 1261 1276 1240 1208 1179 1299 1044 976 930 975 911 1033 1171 1081 1021 640 553 587 644 652 677 763 1079 770 825 1025 1022 922 943 1025 920 788 792 824 798 1037
1211 1257 1270 1294 1644 1526 1547 1396 1265 1287 1191 1032 931 925 857 876 836 853 888 868 881 1006 1017 1047 1104 1163 1106 1106 1021 954 961 1023 1049 999 983 914 1041 1119 1123 1127 1179 1182 1246 1338 1434 1440 1420 1448 1452 1171 1116 1100 1177 1148 1138 1028 1047 1072 1053 1108 1123 1087 1078 904 475 496 522 572 639 646 700 677 754 729 752 911 897 939 922 942 776 703 722 828 813
1198 1265 1303 1416 1397 1430 1386 1386 1337 1217 1139 1060 958 912 900 831 905 905 926 920 1000 1052 1127 1203 1277 1369 1352 1196 1056 975 996 1006 1047 1036 1021 1028 1109 1206 1235 1264 1289 1334 1439 1420 1517 1514 1525 1504 1401 1319 1177 1181 1141 1130 1123 1038 947 1020 963 869 887 1089 1099 721 454 507 541 580 623 673 722 736 670 944 992 1126 866 981 995 1103 1017 829 845 770 848
1238 1284 1352 1310 1314 1472 1385 1412 1354 1102 1024 1004 970 878 878 988 993 916 997 990 1051 1184 1298 1417 1453 1437 1394 1279 1124 1012 993 996 990 989 1072 1111 1163 1223 1256 1292 1283 1414 1465 1360 1487 1546 1511 1527 1469 1446 1422 1424 1280 1113 1128 846 936 1055 872 844 1005 1075 1000 651 450 466 543 634 710 758 747 759 836 803 776 1030 1190 873 929 929 917 1318 873 818 823
1259 1314 1274 1267 1347 1355 1414 1307 1177 1148 1090 1052 987 919 992 898 906 960 957 1051 1171 1306 1297 1286 1410 1524 1498 1425 1204 1062 1013 1028 1043 1115 1165 1174 1182 1231 1203 1180 1294 1404 1481 1553 1550 1497 1569 1576 1576 1568 1504 1387 1178 1004 1015 1045 1110 1178 905 881 1082 1079 727 377 455 510 538 592 680 763 713 825 841 879 948 974 1053 1202 1008 889 998 1208 1290 1086 867
1265 1256 1237 1231 1240 1291 1253 1286 1129 1077 1027 966 999 955 927 837 841 871 1022 1013 980 1010 1086 1119 1202 1356 1514 1580 1439 1236 1151 1144 1136 1188 1225 1248 1255 1278 1294 1292 1388 1444 1455 1452 1526 1565 1571 1654 1700 1664 1617 1316 1194 1121 1033 994 1112 1142 855 822 1120 1097 852 427 355 274 222 156 387 654 726 773 851 817 786 930 964 898 930 975 950 891 856 821 816
1186 1174 1198 1173 1199 1132 1115 1090 1070 1066 930 1014 938 831 816 840 896 892 819 822 849 916 1076 1121 1190 1311 1421 1540 1590 1468 1273 1258 1291 1330 1345 1332 1336 1358 1359 1354 1376 1415 1527 1542 1600 1644 1616 1641 1640 1587 1518 1459 1337 1201 1282 1152 1025 1012 817 908 1017 1008 844 597 372 386 412 561 408 391 537 625 715 845 900 874 885 941 882 895 848 758 781 892 785
1083 1115 1140 1151 1069 1041 976 1000 976 802 826 972 963 822 775 916 844 805 810 780 752 788 855 877 915 1128 1341 1625 1836 1689 1509 1374 1336 1445 1476 1431 1410 1416 1436 1447 1480 1496 1508 1554 1518 1560 1556 1506 1467 1451 1340 1362 1459 1252 1207 1320 1079 932 862 856 988 887 670 440 62 76 217 302 83 308 280 612 592 685 757 740 708 576 558 425 395 422 601 578 678
1025 1070 1076 1032 1017 945 908 913 765 759 752 683 643 763 839 811 810 691 712 695 730 700 740 864 965 1140 1260 1283 1528 1769 1784 1663 1554 1482 1442 1517 1493 1483 1494 1523 1524 1521 1515 1515 1365 1346 1318 1264 1268 1206 1166 1281 1431 1661 1430 1210 1110 949 1033 1128 828 640 453 253 31 19 79 13 24 45 283 474 449 458 489 475 490 411 330 243 231 268 222 194 146
984 979 961 959 942 887 874 785 742 723 674 581 535 522 566 615 707 638 592 560 662 687 656 666 616 609 775 1087 1234 1438 1604 1596 1717 1659 1535 1539 1572 1486 1577 1571 1613 1625 1556 1365 1426 1336 1069 1149 1157 1064 976 1248 1436 1423 1649 1328 1076 886 872 948 664 392 17 11 55 66 62 233 103 26 242 297 340 355 314 337 329 282 249 188 157 135 128 106 58
903 885 885 888 858 839 791 748 695 660 550 410 162 192 462 648 620 636 629 662 582 485 580 432 426 509 746 496 1029 811 1277 1504 1521 1506 1596 1655 1560 1598 1634 1598 1635 1678 1561 1432 1422 1304 1200 1311 1236 1085 1153 1282 1299 1429 1304 1242 1018 658 665 658 389 8 10 42 88 188 120 140 167 67 128 67 132 211 252 190 153 132 123 109 101 86 65 58 20
824 806 820 806 786 738 700 679 632 551 303 203 221 321 520 608 473 500 554 853 772 774 790 644 997 391 635 628 61 485 706 1196 1388 1789 1505 1666 1537 1623 1693 1650 1670 1669 1619 1499 1397 1445 1459 1356 1339 1250 1326 1157 944 1139 1405 1333 1225 1036 801 536 55 20 16 25 50 152 224 193 379 298 231 138 54 27 39 70 75 48 39 30 14 15 27 29 10
778 790 765 757 715 652 633 614 542 313 155 167 197 407 426 175 123 109 288 700 928 974 293 818 250 127 243 2 142 183 114 490 1191 1412 1534 1648 1673 1642 1707 1708 1708 1661 1627 1605 1440 1458 1460 1389 1369 1422 1285 1290 481 972 1175 1130 1082 1102 712 134 24 21 28 28 53 112 204 383 198 351 251 187 152 114 26 0 0 5 1 0 0 0 3 2 2
753 772 755 720 628 581 604 563 337 94 93 66 88 44 41 31 39 71 125 81 373 90 34 36 0 107 27 1 4 41 111 439 1446 1503 1791 1624 1528 1750 1726 1706 1827 1720 1696 1787 1630 1525 1494 1609 1358 1662 1219 563 372 575 898 810 467 71 42 52 47 47 46 71 120 108 225 379 239 268 198 129 46 32 27 3 0 0 0 0 1 2 3 3 3
782 760 741 667 596 590 566 380 47 24 12 58 24 7 3 6 4 20 32 17 14 0 0 0 0 33 112 17 10 158 0 355 825 710 1411 1418 1268 1529 1682 1624 1554 1635 1832 1344 1359 1522 1444 1240 957 1185 842 728 339 136 337 218 217 180 177 58 58 44 62 94 253 223 131 220 353 255 151 69 15 0 0 1 2 4 3 1 1 1 1 1 1
829 775 722 633 610 610 542 209 1 0 15 24 11 87 14 0 0 0 0 0 0 0 0 0 0 0 0 0 1 12 10 210 554 445 630 1316 1368 1377 1539 1583 1532 1541 1448 1257 1270 1363 1173 1063 920 817 712 530 504 493 250 255 270 248 198 74 32 112 222 243 268 247 82 113 332 222 102 39 3 0 0 1 0 2 2 2 2 1 2 3 3
884 798 738 637 625 679 530 107 0 0 4 15 1 48 0 0 0 0 0 0 0 0 0 0 0 0 0 0 0 0 0 86 227 134 12 751 1336 1338 1366 1454 1524 1508 1328 1172 1116 1192 851 1044 854 701 623 591 701 680 461 203 264 242 242 200 179 216 244 288 311 293 164 256 245 223 50 5 0 0 0 0 1 2 1 1 0 1 2 1 2
913 841 770 667 649 639 496 0 0 0 0 0 0 12 0 0 1 413 85 209 7 0 0 0 0 0 0 0 0 0 0 0 0 0 0 38 761 1191 1253 1231 1360 1320 1208 1273 1111 1051 633 828 928 899 936 920 732 490 35 20 163 176 174 225 225 233 264 295 279 294 274 219 208 138 5 0 0 0 0 1 1 1 0 1 0 0 0 2 1
939 871 818 727 663 609 416 2 13 4 0 0 0 22 1 0 70 91 22 996 0 0 0 0 0 0 0 0 0 0 0 0 0 0 0 0 76 732 1180 1109 1157 1162 971 1019 916 938 678 822 748 802 732 651 373 20 2 86 104 94 105 123 131 151 194 231 247 240 180 104 22 56 18 0 0 0 0 0 1 1 2 2 2 1 1 1 3
934 930 886 784 703 649 353 112 108 0 0 0 2 24 8 1 59 75 39 1137 0 0 0 0 0 0 0 0 0 0 0 0 0 0 0 0 0 116 808 1031 1101 1122 914 710 645 664 766 800 968 756 643 262 2 0 0 57 65 74 79 60 54 66 93 114 162 123 87 48 2 75 27 9 0 0 1 2 4 2 1 2 3 2 2 1 2
960 987 952 810 755 649 477 366 184 146 28 17 18 24 8 5 62 26 70 0 0 0 0 0 0 0 0 0 0 0 0 0 0 0 0 0 0 0 230 779 913 985 873 757 503 562 655 925 890 575 227 11 11 0 0 15 20 48 49 3 32 48 48 14 33 78 44 0 0 1 45 2 0 0 0 2 5 5 1 1 1 2 1 1 1
948 1007 1007 910 828 601 538 582 274 155 93 43 86 16 14 28 34 0 0 0 0 0 0 0 0 0 0 0 0 0 0 0 0 0 0 0 0 0 9 416 662 701 715 712 502 481 743 919 629 86 21 7 0 0 5 0 0 0 0 26 33 42 30 16 17 2 0 0 0 0 0 0 0 0 0 1 3 2 1 1 1 1 2 1 2
934 897 901 939 812 543 621 682 286 210 69 63 44 24 4 0 0 0 0 0 0 0 0 0 0 0 0 0 0 0 0 0 0 0 4 0 0 0 0 205 373 476 691 602 465 567 807 644 89 89 38 13 0 0 2 0 0 0 0 20 20 8 11 17 5 0 0 0 0 0 0 0 0 0 0 0 0 1 2 1 1 1 2 2 3
980 893 854 800 665 561 678 668 393 211 237 69 89 5 0 0 0 0 0 0 0 0 0 0 0 0 0 0 0 0 0 0 0 0 0 0 0 0 0 53 204 358 573 491 378 570 680 21 9 4 585 57 24 0 0 0 0 0 5 13 2 7 1 1 0 0 0 0 0 0 0 0 0 0 0 0 0 0 1 2 2 0 1 1 1
1025 972 928 819 680 618 711 635 420 324 245 219 35 0 0 0 0 0 0 0 0 0 0 0 0 0 0 0 0 0 0 0 0 0 0 0 0 0 0 0 0 163 386 412 321 431 380 0 0 0 0 0 4 0 0 0 0 0 0 0 0 0 0 0 0 0 0 0 0 0 0 0 0 0 0 0 0 0 0 1 0 0 0 0 1
1124 1045 972 858 735 672 684 600 464 346 357 70 5 0 0 0 0 2 0 0 0 0 0 0 0 0 0 0 0 0 0 0 0 0 0 0 0 0 0 0 0 24 312 355 304 335 0 0 16 0 0 89 53 0 0 0 0 0 0 0 0 0 0 0 0 0 0 0 0 0 0 0 0 0 0 0 0 0 0 0 0 2 2 1 1
1171 1187 1056 935 806 714 712 566 490 384 346 48 0 0 0 0 0 0 0 0 0 0 0 0 0 0 0 0 0 0 0 0 0 0 0 0 0 0 0 0 0 4 4 321 240 98 0 0 0 0 0 169 0 4 0 0 0 0 0 0 0 0 0 0 0 0 0 0 0 0 0 0 0 0 0 0 0 0 0 0 0 0 0 2 3
898 945 851 760 704 734 656 595 493 329 188 1 0 0 0 0 0 0 0 0 0 0 0 0 0 0 0 0 0 0 0 0 0 0 0 0 0 0 0 0 0 11 13 0 37 0 0 0 0 0 0 61 0 0 1 4 1 0 0 17 0 0 0 0 0 0 0 0 0 0 0 0 0 0 0 0 0 0 0 0 0 0 0 0 0
724 631 709 716 686 729 682 560 436 158 2 0 0 0 0 0 0 0 0 0 0 0 0 0 0 0 0 0 0 0 0 0 0 0 0 0 0 0 0 0 0 0 9 0 0 0 5 0 0 0 158 182 163 0 0 0 19 22 38 4 0 0 0 0 0 0 0 0 0 0 0 0 0 0 0 0 0 0 0 0 0 0 0 0 0
721 773 755 740 703 518 669 501 336 31 0 0 0 0 0 0 0 0 0 0 0 0 0 0 0 0 0 0 0 0 0 0 0 0 0 0 0 0 0 0 0 0 0 1 1 0 5 0 0 36 340 149 10 10 0 12 0 0 119 22 0 0 0 0 0 0 0 0 0 0 0 0 0 0 0 0 0 0 0 0 0 0 0 0 0
709 690 611 644 630 573 558 430 201 17 0 0 0 0 0 0 0 0 0 0 0 0 0 0 0 0 0 0 0 0 0 0 0 0 0 0 0 0 0 0 0 0 0 0 1 1 0 0 0 92 16 43 16 2 2 0 0 4 0 60 61 17 70 9 0 0 0 0 0 0 0 0 0 0 0 0 0 0 0 0 0 0 0 0 0
666 660 586 497 606 681 566 415 118 10 0 0 0 0 0 0 0 0 0 0 0 0 0 0 0 0 0 0 0 0 0 0 0 0 0 0 0 0 0 0 0 0 0 0 0 41 7 0 0 0 1 8 13 5 0 0 0 0 16 18 77 0 3 3 0 0 0 0 0 0 0 0 0 0 0 0 0 0 0 0 0 0 0 0 0
636 610 576 640 689 711 631 483 86 8 0 0 0 0 0 0 0 0 0 0 0 0 0 0 0 0 0 0 0 0 0 0 0 0 0 0 0 0 0 0 0 0 0 0 0 0 0 0 0 0 1 0 1 15 0 0 0 0 1 0 4 6 0 0 0 0 0 0 0 0 0 0 0 0 0 0 0 0 0 0 0 0 0 0 0
579 600 709 748 750 706 673 544 411 350 46 0 0 0 0 0 0 0 0 0 0 0 0 0 0 0 0 0 0 0 0 0 0 0 0 0 0 0 0 0 0 0 0 0 0 0 0 0 0 0 0 12 0 3 1 0 0 0 24 3 0 0 0 0 0 0 0 0 0 0 0 0 0 0 0 0 0 0 0 0 0 0 0 0 0
608 594 744 826 803 731 717 635 549 502 373 84 19 0 0 0 0 0 0 0 0 0 0 0 0 0 0 0 0 0 0 0 0 0 0 0 0 0 0 0 0 0 0 0 0 0 0 0 0 0 0 0 0 0 1 0 0 0 0 0 0 0 0 0 0 21 0 0 0 0 0 0 0 0 0 0 0 0 0 0 0 0 0 0 0
608 606 745 780 858 840 675 714 646 592 0 49 0 0 0 0 0 0 0 0 0 0 0 0 0 0 0 0 0 0 0 0 0 0 0 0 0 0 0 0 0 0 0 0 0 0 0 0 0 0 0 0 0 0 1 10 0 0 0 0 0 0 0 0 0 2 0 0 0 0 0 0 0 0 0 0 0 0 0 0 0 0 0 0 0
645 560 741 696 833 901 851 793 678 474 7 30 0 0 0 0 0 0 0 0 0 0 0 0 0 0 0 0 0 0 0 0 0 0 0 0 0 0 0 0 0 0 0 0 0 0 0 0 0 0 0 0 0 0 0 0 0 0 0 0 0 0 0 0 8 0 0 0 0 0 0 0 0 0 0 0 0 0 0 0 0 0 0 0 0
522 631 761 824 638 815 854 790 530 407 70 20 0 0 0 0 0 0 0 0 0 0 0 0 0 0 0 0 0 0 0 0 0 0 0 0 0 0 0 0 0 0 0 0 0 0 0 0 0 0 0 0 0 0 0 0 0 0 0 0 0 4 1 0 0 4 0 0 0 0 0 0 0 0 0 0 0 0 0 0 0 0 0 0 0
627 738 587 653 654 581 682 568 472 126 64 13 0 0 0 0 0 0 0 0 0 0 0 0 0 0 0 0 0 0 0 0 0 0 0 0 0 0 0 0 0 0 0 0 0 0 0 0 0 0 0 0 0 0 0 0 0 0 0 0 0 0 0 0 0 0 0 0 0 0 0 0 0 0 0 0 0 0 0 0 0 0 0 0 0
707 687 596 604 673 571 582 609 388 71 13 22 0 0 0 0 0 0 0 0 0 0 0 0 0 0 0 0 0 0 0 0 0 0 0 0 0 0 0 0 0 0 0 0 0 0 0 0 0 0 0 0 0 0 0 0 0 0 0 0 0 0 0 0 0 0 0 0 0 0 0 0 0 0 0 0 0 0 0 0 0 0 0 0 0
718 651 603 449 622 661 534 510 428 320 8 12 0 0 0 0 0 0 0 0 0 0 0 0 0 0 0 0 0 0 0 0 0 0 0 0 0 0 0 0 0 0 0 0 0 0 0 0 0 0 0 0 0 0 0 0 0 0 0 0 0 0 0 0 0 0 0 0 0 0 0 0 0 0 0 0 0 0 0 0 0 0 0 0 0
Wind_Speed
28 31 29 34 35 37 36 35 35 33 32 32 31 30 30 30 31 31 32 32 32 33 34 34 35 35 36 36 36 37 38 37 36 34 32 30 28 27 27 26 26 26 26 26 28 30 30 29 27 28 29 30 31 31 31 30 29 28 27 28 28 27 27 27 26 26 25 25 24 24 24 25 25 25 23 19 18 21 22 24 22 18 14 14 18
35 31 31 33 38 37 36 35 34 33 33 32 30 29 30 31 31 32 31 32 32 33 34 34 34 35 36 36 37 38 38 37 35 33 30 28 27 26 25 25 26 26 27 28 30 30 31 29 29 30 30 31 32 32 31 30 29 27 27 27 27 26 26 26 25 25 24 24 23 23 24 25 25 25 23 20 19 21 19 22 22 14 11 16 18
36 32 32 35 40 37 36 36 35 34 33 31 30 30 30 30 31 31 31 32 32 33 33 34 35 36 36 37 38 38 37 36 34 31 29 27 26 26 25 24 25 27 29 30 30 31 31 30 30 30 31 32 33 31 31 29 28 28 28 28 27 26 25 25 24 24 23 23 21 21 21 24 24 26 23 21 19 19 18 19 20 15 13 20 19
37 31 32 37 38 37 37 37 36 35 33 31 30 29 30 31 31 31 32 33 33 33 33 34 35 36 36 37 38 38 37 35 32 29 27 26 25 26 26 26 25 28 29 30 30 31 31 31 31 31 32 33 32 30 29 29 28 29 28 27 26 25 24 23 22 22 23 22 20 17 12 11 18 24 22 19 18 18 17 18 18 17 18 19 20
35 32 32 33 33 37 39 39 37 35 32 31 29 30 30 31 32 32 32 33 33 33 34 34 35 36 36 37 37 37 36 34 31 28 27 26 25 26 27 27 27 29 31 31 31 31 30 31 31 31 32 32 31 30 29 28 28 27 26 26 25 24 24 22 22 21 21 20 18 14 10 11 12 22 20 17 16 15 16 18 17 17 18 20 18
32 32 33 33 33 35 40 38 36 34 31 30 30 30 30 31 31 32 32 32 33 34 34 35 35 36 37 38 37 37 35 32 30 27 27 26 26 26 28 29 29 31 30 31 31 32 31 30 30 31 31 31 30 29 28 28 27 26 26 26 25 23 23 22 21 20 19 18 15 10 9 9 9 14 20 18 16 14 16 16 15 16 17 18 18
34 33 34 34 33 35 39 37 34 33 30 30 30 29 31 31 32 32 32 33 34 34 35 35 35 36 37 37 37 37 34 31 29 27 26 25 26 27 28 27 29 29 30 31 30 30 30 29 29 30 30 30 29 28 28 27 26 24 24 24 22 22 22 21 20 19 19 13 9 8 8 8 7 7 19 19 16 13 11 14 14 15 15 16 16
35 34 34 34 32 36 39 36 33 32 30 29 30 31 31 32 32 33 33 33 33 34 35 35 36 36 37 37 37 36 34 30 28 26 26 26 27 27 27 29 29 30 29 30 30 29 28 28 28 29 29 29 28 28 27 26 25 25 24 23 22 22 20 20 20 19 19 11 8 7 7 8 7 6 16 18 17 15 11 12 13 13 14 15 15
37 36 36 35 34 41 37 34 32 30 29 30 31 31 32 33 33 33 33 33 34 35 35 35 36 36 37 37 37 35 32 30 27 26 26 26 28 27 28 29 29 30 30 29 28 28 28 28 28 29 29 28 27 26 25 24 25 24 23 22 22 21 20 20 18 16 11 8 7 6 6 5 4 4 12 15 17 17 15 11 9 14 14 15 14
39 37 37 34 33 39 36 34 31 30 29 30 31 32 33 33 32 33 33 34 34 35 34 35 36 37 37 37 36 34 31 28 28 26 26 28 28 29 29 29 28 29 29 28 28 27 27 28 28 29 29 28 27 25 23 22 23 23 22 22 20 19 18 18 17 13 8 7 7 6 6 7 6 4 8 15 15 17 15 10 5 7 8 13 14
42 38 36 35 35 39 36 33 31 30 30 30 31 32 33 33 33 33 33 34 34 34 34 35 36 37 37 37 36 33 30 28 27 26 26 27 27 28 28 28 28 27 27 27 27 27 27 27 28 29 29 28 26 24 21 21 21 23 22 21 19 17 17 16 13 7 6 6 6 5 4 6 3 4 9 13 14 15 16 13 10 11 11 10 10
41 38 35 33 36 39 36 33 32 30 30 31 32 33 32 32 33 33 33 34 34 34 35 35 36 36 36 36 34 31 28 27 26 26 26 26 27 27 27 27 27 26 25 26 26 26 26 27 28 28 28 27 24 22 21 21 21 21 22 20 17 15 15 15 9 6 5 5 4 3 4 4 3 4 11 11 13 14 15 15 13 14 13 10 8
41 37 34 32 32 38 36 34 32 31 30 31 32 33 32 33 33 33 34 34 34 34 35 35 35 36 36 35 32 29 27 26 26 26 26 26 27 26 26 27 26 25 24 24 25 25 25 26 27 28 26 25 23 21 21 21 20 21 22 21 17 14 12 15 6 5 4 2 2 4 5 5 4 10 10 10 11 11 12 12 11 13 14 14 10
42 38 35 33 31 37 37 34 32 31 31 31 31 31 32 33 33 33 33 33 33 34 34 34 35 35 35 33 30 28 26 25 25 25 26 26 26 25 26 26 26 25 24 24 24 25 25 26 26 26 25 23 21 21 20 21 21 21 22 20 16 12 12 11 7 3 1 2 4 5 5 5 3 9 9 8 8 10 9 10 11 12 12 13 14
43 39 36 34 33 31 35 34 32 31 31 31 30 30 32 32 33 33 33 32 32 33 34 34 34 34 34 32 29 26 25 24 25 25 26 26 25 25 25 26 26 25 24 24 24 25 25 24 24 23 22 21 21 21 21 21 21 21 21 18 13 11 12 5 3 1 1 5 8 7 7 6 6 5 6 4 7 9 9 10 11 12 12 12 12
41 39 37 35 32 28 27 31 34 32 31 31 29 30 32 32 32 32 31 31 32 33 33 34 34 34 33 30 27 25 24 24 24 25 25 25 25 24 25 25 25 24 23 23 24 24 24 23 22 20 19 19 20 21 22 21 21 21 22 19 14 12 12 6 3 1 3 6 8 8 9 4 4 3 5 5 6 7 9 12 12 12 12 12 10
39 37 37 35 31 27 25 25 28 33 31 30 29 30 31 31 31 31 30 30 32 32 33 33 34 33 32 29 26 25 24 24 24 25 25 25 25 24 24 24 24 24 23 22 23 23 23 22 21 19 17 15 17 20 21 21 20 21 21 18 15 13 10 6 2 3 5 7 10 11 12 10 5 5 7 8 8 9 9 10 11 11 11 10 10
37 37 36 32 29 26 24 25 25 24 23 26 28 30 31 31 30 30 29 30 31 31 32 33 33 32 30 28 25 24 24 25 25 25 24 24 25 24 23 23 23 23 22 22 22 22 22 21 20 17 14 13 13 17 19 19 19 19 20 18 15 13 9 6 nan nan 3 6 nan 9 10 6 7 7 7 7 7 7 8 9 9 9 9 9 10
37 36 33 31 28 25 24 24 23 22 21 19 19 25 30 29 29 29 29 30 30 31 32 32 31 30 28 26 23 23 22 24 25 25 24 24 24 25 24 23 23 22 22 22 22 21 20 20 18 15 12 11 12 16 20 20 18 18 17 18 15 12 10 5 nan nan nan nan nan nan 7 4 4 5 5 6 6 7 8 7 8 8 9 9 9
37 35 31 29 27 25 23 23 22 21 20 19 20 21 26 29 28 28 28 28 29 29 30 30 29 28 27 24 23 19 20 19 24 22 25 24 24 22 23 22 22 22 22 22 21 19 17 18 16 13 11 11 13 21 23 20 17 19 16 17 16 13 nan nan nan nan nan 4 5 nan 3 4 5 5 6 7 7 8 9 8 9 9 9 10 nan
36 33 30 27 25 24 24 22 21 21 20 19 19 19 22 27 26 27 28 28 28 29 30 29 28 26 23 22 19 16 15 15 18 17 23 19 23 24 23 23 22 22 22 21 20 18 15 14 12 8 7 10 12 21 24 19 17 19 19 19 16 nan nan nan nan 6 6 5 5 nan 5 nan 6 6 7 8 8 9 9 9 8 nan nan nan nan
35 31 27 25 23 22 22 22 21 21 20 19 18 18 19 22 20 20 20 22 25 26 24 21 23 19 23 18 nan 14 16 16 16 18 17 19 20 24 23 23 23 22 21 20 19 16 14 12 9 7 6 8 13 10 15 19 20 19 20 19 nan nan nan nan nan 7 7 7 5 3 6 7 nan nan nan nan nan nan nan nan nan nan nan nan nan
33 29 25 23 21 20 20 21 20 20 20 18 17 17 20 20 19 19 18 21 21 22 21 20 19 18 16 nan 15 15 14 15 16 17 17 21 20 24 24 23 23 23 21 20 18 15 13 11 8 5 4 8 9 9 9 9 11 19 17 11 nan nan nan nan nan 5 6 6 6 5 5 6 8 8 nan nan nan nan nan nan nan nan nan nan nan
30 26 25 22 20 18 19 19 20 nan nan nan nan nan nan nan nan nan 18 nan 19 nan nan nan nan 17 nan nan nan nan 14 14 17 21 21 18 20 23 23 23 23 23 23 19 17 15 12 9 7 5 5 4 8 9 9 9 10 nan nan nan nan nan nan nan 5 4 3 4 5 5 5 6 nan nan nan nan nan nan nan nan nan nan nan nan nan
27 26 24 21 18 18 19 19 nan nan nan nan nan nan nan nan nan nan nan nan nan nan nan nan nan nan 12 nan nan 14 nan 14 14 15 15 17 18 18 17 16 16 17 21 17 15 12 11 9 6 4 3 2 4 10 10 9 8 9 9 nan nan nan nan nan 6 5 4 3 3 5 6 nan nan nan nan nan nan nan nan nan nan nan nan nan nan
27 24 22 20 18 18 19 18 nan nan nan nan nan nan nan nan nan nan nan nan nan nan nan nan nan nan nan nan nan nan nan 14 15 16 15 16 18 18 18 18 17 16 17 17 15 13 11 9 6 4 2 3 4 8 9 8 7 8 9 nan nan 8 8 7 6 5 nan 3 2 7 6 nan nan nan nan nan nan nan nan nan nan nan nan nan nan
24 22 20 18 18 18 19 19 nan nan nan nan nan nan nan nan nan nan nan nan nan nan nan nan nan nan nan nan nan nan nan nan 12 12 nan 16 17 17 19 19 19 17 16 16 15 13 12 10 6 5 4 2 2 4 9 7 6 7 9 10 10 10 9 8 7 6 4 3 4 10 nan nan nan nan nan nan nan nan nan nan nan nan nan nan nan
22 20 18 17 17 18 19 nan nan nan nan nan nan nan nan nan nan 19 nan 18 nan nan nan nan nan nan nan nan nan nan nan nan nan nan nan nan 18 17 17 18 18 18 16 16 13 12 12 11 7 6 5 3 3 6 nan nan 6 6 9 9 10 10 9 8 7 6 5 3 4 7 nan nan nan nan nan nan nan nan nan nan nan nan nan nan nan
20 17 16 17 16 17 18 nan nan nan nan nan nan nan nan nan nan nan nan 17 nan nan nan nan nan nan nan nan nan nan nan nan nan nan nan nan nan 18 18 19 19 18 18 15 13 12 12 11 8 6 5 3 5 nan nan nan 5 nan 8 9 11 10 9 8 6 5 5 5 nan nan nan nan nan nan nan nan nan nan nan nan nan nan nan nan nan
17 16 17 16 16 17 18 17 16 nan nan nan nan nan nan nan nan nan nan 16 nan nan nan nan nan nan nan nan nan nan nan nan nan nan nan nan nan 14 18 19 20 19 18 16 13 12 11 11 9 7 5 4 nan nan nan nan nan nan nan nan nan nan nan 7 5 5 nan nan nan nan nan nan nan nan nan nan nan nan nan nan nan nan nan nan nan
16 16 16 16 16 17 16 16 15 15 nan nan nan nan nan nan nan nan nan nan nan nan nan nan nan nan nan nan nan nan nan nan nan nan nan nan nan nan 17 19 19 18 17 15 13 12 11 10 10 7 5 nan nan nan nan nan nan nan nan nan nan nan nan nan nan nan nan nan nan nan nan nan nan nan nan nan nan nan nan nan nan nan nan nan nan
16 16 16 16 16 16 16 16 16 15 nan nan nan nan nan nan nan nan nan nan nan nan nan nan nan nan nan nan nan nan nan nan nan nan nan nan nan nan nan 18 19 18 16 15 13 10 11 10 9 nan nan nan nan nan nan nan nan nan nan nan nan nan nan nan nan nan nan nan nan nan nan nan nan nan nan nan nan nan nan nan nan nan nan nan nan
16 17 17 17 16 15 16 16 17 16 nan nan nan nan nan nan nan nan nan nan nan nan nan nan nan nan nan nan nan nan nan nan nan nan nan nan nan nan nan 15 18 18 16 15 13 11 9 10 nan nan nan nan nan nan nan nan nan nan nan nan nan nan nan nan nan nan nan nan nan nan nan nan nan nan nan nan nan nan nan nan nan nan nan nan nan
17 17 17 16 16 16 16 15 17 18 17 nan nan nan nan nan nan nan nan nan nan nan nan nan nan nan nan nan nan nan nan nan nan nan nan nan nan nan nan nan 13 16 15 15 14 11 10 nan nan nan 9 nan nan nan nan nan nan nan nan nan nan nan nan nan nan nan nan nan nan nan nan nan nan nan nan nan nan nan nan nan nan nan nan nan nan
18 17 16 16 17 16 15 15 16 18 18 17 nan nan nan nan nan nan nan nan nan nan nan nan nan nan nan nan nan nan nan nan nan nan nan nan nan nan nan nan nan 15 18 16 14 12 10 nan nan nan nan nan nan nan nan nan nan nan nan nan nan nan nan nan nan nan nan nan nan nan nan nan nan nan nan nan nan nan nan nan nan nan nan nan nan
17 16 17 17 16 16 15 16 17 19 18 nan nan nan nan nan nan nan nan nan nan nan nan nan nan nan nan nan nan nan nan nan nan nan nan nan nan nan nan nan nan nan 18 15 13 13 nan nan nan nan nan nan nan nan nan nan nan nan nan nan nan nan nan nan nan nan nan nan nan nan nan nan nan nan nan nan nan nan nan nan nan nan nan nan nan
17 16 17 16 16 15 16 18 18 19 18 nan nan nan nan nan nan nan nan nan nan nan nan nan nan nan nan nan nan nan nan nan nan nan nan nan nan nan nan nan nan nan nan 16 12 nan nan nan nan nan nan 6 nan nan nan nan nan nan nan nan nan nan nan nan nan nan nan nan nan nan nan nan nan nan nan nan nan nan nan nan nan nan nan nan nan
17 17 16 16 16 16 17 18 18 19 19 nan nan nan nan nan nan nan nan nan nan nan nan nan nan nan nan nan nan nan nan nan nan nan nan nan nan nan nan nan nan nan nan nan nan nan nan nan nan nan nan nan nan nan nan nan nan nan nan nan nan nan nan nan nan nan nan nan nan nan nan nan nan nan nan nan nan nan nan nan nan nan nan nan nan
16 17 16 16 17 17 18 18 19 19 nan nan nan nan nan nan nan nan nan nan nan nan nan nan nan nan nan nan nan nan nan nan nan nan nan nan nan nan nan nan nan nan nan nan nan nan nan nan nan nan 6 6 6 nan nan nan nan nan nan nan nan nan nan nan nan nan nan nan nan nan nan nan nan nan nan nan nan nan nan nan nan nan nan nan nan
17 17 17 17 17 18 17 18 19 nan nan nan nan nan nan nan nan nan nan nan nan nan nan nan nan nan nan nan nan nan nan nan nan nan nan nan nan nan nan nan nan nan nan nan nan nan nan nan nan nan 6 7 nan nan nan nan nan nan 8 nan nan nan nan nan nan nan nan nan nan nan nan nan nan nan nan nan nan nan nan nan nan nan nan nan nan
17 19 18 17 17 18 18 18 17 nan nan nan nan nan nan nan nan nan nan nan nan nan nan nan nan nan nan nan nan nan nan nan nan nan nan nan nan nan nan nan nan nan nan nan nan nan nan nan nan nan nan nan nan nan nan nan nan nan nan nan nan nan nan nan nan nan nan nan nan nan nan nan nan nan nan nan nan nan nan nan nan nan nan nan nan
17 19 18 18 17 17 18 17 16 nan nan nan nan nan nan nan nan nan nan nan nan nan nan nan nan nan nan nan nan nan nan nan nan nan nan nan nan nan nan nan nan nan nan nan nan nan nan nan nan nan nan nan nan nan nan nan nan nan nan nan nan nan nan nan nan nan nan nan nan nan nan nan nan nan nan nan nan nan nan nan nan nan nan nan nan
17 18 19 20 18 17 17 17 nan nan nan nan nan nan nan nan nan nan nan nan nan nan nan nan nan nan nan nan nan nan nan nan nan nan nan nan nan nan nan nan nan nan nan nan nan nan nan nan nan nan nan nan nan nan nan nan nan nan nan nan nan nan nan nan nan nan nan nan nan nan nan nan nan nan nan nan nan nan nan nan nan nan nan nan nan
15 18 20 19 17 17 17 17 16 15 nan nan nan nan nan nan nan nan nan nan nan nan nan nan nan nan nan nan nan nan nan nan nan nan nan nan nan nan nan nan nan nan nan nan nan nan nan nan nan nan nan nan nan nan nan nan nan nan nan nan nan nan nan nan nan nan nan nan nan nan nan nan nan nan nan nan nan nan nan nan nan nan nan nan nan
14 16 17 17 16 18 18 18 17 15 14 nan nan nan nan nan nan nan nan nan nan nan nan nan nan nan nan nan nan nan nan nan nan nan nan nan nan nan nan nan nan nan nan nan nan nan nan nan nan nan nan nan nan nan nan nan nan nan nan nan nan nan nan nan nan nan nan nan nan nan nan nan nan nan nan nan nan nan nan nan nan nan nan nan nan
13 14 12 16 19 18 19 18 16 15 nan nan nan nan nan nan nan nan nan nan nan nan nan nan nan nan nan nan nan nan nan nan nan nan nan nan nan nan nan nan nan nan nan nan nan nan nan nan nan nan nan nan nan nan nan nan nan nan nan nan nan nan nan nan nan nan nan nan nan nan nan nan nan nan nan nan nan nan nan nan nan nan nan nan nan
12 12 12 16 20 19 19 18 17 15 nan nan nan nan nan nan nan nan nan nan nan nan nan nan nan nan nan nan nan nan nan nan nan nan nan nan nan nan nan nan nan nan nan nan nan nan nan nan nan nan nan nan nan nan nan nan nan nan nan nan nan nan nan nan nan nan nan nan nan nan nan nan nan nan nan nan nan nan nan nan nan nan nan nan nan
13 15 14 16 20 19 19 18 17 15 nan nan nan nan nan nan nan nan nan nan nan nan nan nan nan nan nan nan nan nan nan nan nan nan nan nan nan nan nan nan nan nan nan nan nan nan nan nan nan nan nan nan nan nan nan nan nan nan nan nan nan nan nan nan nan nan nan nan nan nan nan nan nan nan nan nan nan nan nan nan nan nan nan nan nan
15 15 14 15 19 19 18 18 16 15 nan nan nan nan nan nan nan nan nan nan nan nan nan nan nan nan nan nan nan nan nan nan nan nan nan nan nan nan nan nan nan nan nan nan nan nan nan nan nan nan nan nan nan nan nan nan nan nan nan nan nan nan nan nan nan nan nan nan nan nan nan nan nan nan nan nan nan nan nan nan nan nan nan nan nan
16 17 16 16 18 17 15 17 16 nan nan nan nan nan nan nan nan nan nan nan nan nan nan nan nan nan nan nan nan nan nan nan nan nan nan nan nan nan nan nan nan nan nan nan nan nan nan nan nan nan nan nan nan nan nan nan nan nan nan nan nan nan nan nan nan nan nan nan nan nan nan nan nan nan nan nan nan nan nan nan nan nan nan nan nan
18 17 19 19 15 14 14 15 14 12 nan nan nan nan nan nan nan nan nan nan nan nan nan nan nan nan nan nan nan nan nan nan nan nan nan nan nan nan nan nan nan nan nan nan nan nan nan nan nan nan nan nan nan nan nan nan nan nan nan nan nan nan nan nan nan nan nan nan nan nan nan nan nan nan nan nan nan nan nan nan nan nan nan nan nan
Wind_Direction
308 299 299 304 304 304 303 304 304 304 304 304 304 304 301 298 296 295 296 297 297 296 295 295 296 298 301 302 302 303 304 304 304 303 303 305 305 304 303 300 298 297 298 298 295 294 294 296 297 295 294 292 291 289 287 284 281 278 278 278 281 278 277 276 276 278 279 278 278 276 276 275 274 275 273 266 259 258 262 269 270 265 265 272 279
305 295 295 300 303 303 302 303 303 303 304 304 304 302 300 297 296 296 297 298 298 297 296 296 298 301 302 302 303 304 304 304 304 304 304 306 306 303 303 301 300 299 299 298 298 300 297 299 298 295 294 292 290 288 285 283 282 280 276 274 275 276 274 275 277 278 278 278 275 271 271 275 278 278 275 268 265 265 266 273 275 260 255 277 270
295 290 290 297 301 301 302 303 303 303 304 304 303 301 299 297 297 297 298 299 299 298 298 299 300 302 302 302 303 304 304 304 304 305 306 306 305 302 297 297 298 301 302 303 302 299 301 297 296 296 293 291 290 288 285 283 280 279 277 276 276 275 275 276 279 280 278 276 269 265 261 267 269 273 274 270 267 266 267 269 272 270 274 281 272
292 288 289 295 299 300 301 303 303 303 303 303 302 300 299 298 299 300 301 301 301 300 300 301 302 302 302 302 303 304 305 305 305 307 307 305 303 300 299 297 299 301 301 300 302 301 299 300 298 294 292 290 289 287 285 282 279 277 276 275 275 276 277 280 281 279 277 276 270 264 268 264 271 272 273 274 274 272 269 260 268 277 278 276 279
288 288 288 289 293 298 300 302 302 302 302 303 301 300 300 300 301 302 303 302 302 302 302 302 302 302 301 302 304 305 305 305 307 307 305 304 302 299 300 300 302 302 304 304 301 299 300 299 296 293 292 291 289 286 284 282 280 276 272 274 275 275 277 280 279 277 277 273 270 265 265 262 267 276 279 276 275 273 268 266 267 273 278 280 284
284 287 286 286 289 295 300 301 301 301 302 302 301 300 301 302 303 303 303 303 303 303 302 302 302 302 302 304 305 305 305 306 307 306 307 306 301 300 300 303 303 303 304 303 301 302 301 297 296 294 292 291 289 287 285 283 279 275 271 271 273 277 281 281 278 276 273 270 264 267 258 257 260 274 285 285 277 268 266 272 270 273 275 277 281
286 286 285 286 288 294 300 300 300 301 302 301 300 301 302 303 304 305 305 305 304 303 303 303 302 302 303 305 306 306 306 307 307 308 307 303 299 296 298 303 302 303 303 302 303 302 299 297 296 294 292 291 290 288 285 281 279 275 272 271 273 278 280 281 278 274 272 274 274 263 252 246 247 266 277 276 275 272 274 279 279 275 271 272 271
284 284 283 285 287 296 299 300 300 301 301 300 299 301 303 305 306 307 306 306 305 304 303 302 302 302 304 305 306 306 306 306 306 308 306 301 299 300 302 302 304 305 305 304 304 302 300 298 296 294 293 292 291 289 285 281 278 274 272 273 277 279 280 279 277 273 271 279 271 258 248 242 244 244 278 281 287 288 272 270 277 275 278 278 266
284 283 282 284 289 299 299 298 299 300 299 298 300 302 305 306 307 307 307 306 305 304 303 302 302 303 305 306 306 306 306 307 308 307 304 302 298 301 305 304 304 305 305 304 304 302 300 299 297 295 294 293 292 290 286 281 275 271 272 274 276 281 282 281 276 273 278 280 267 257 248 237 236 252 283 289 287 286 279 261 256 263 264 269 266
282 281 281 283 289 299 298 298 298 298 297 297 300 303 305 307 308 308 307 306 305 304 303 303 303 304 305 305 306 306 307 307 307 306 303 301 304 306 303 303 304 306 305 305 304 303 302 300 298 296 294 294 294 290 283 280 280 275 274 273 277 282 282 279 277 277 287 274 257 240 252 239 222 226 282 281 279 274 269 271 253 255 258 253 264
280 280 279 282 291 298 298 297 297 296 296 297 300 303 305 306 307 308 308 306 305 304 303 303 303 305 306 307 307 307 307 306 304 302 301 301 302 302 303 303 304 305 305 305 305 303 301 300 298 296 295 296 292 286 282 282 278 279 276 279 281 282 286 283 282 298 281 264 251 228 203 214 210 152 256 258 266 276 285 281 279 275 265 253 250
277 278 279 282 292 298 297 297 297 296 296 298 300 303 305 305 307 307 307 306 305 304 303 303 305 306 307 307 307 308 307 306 303 303 303 303 304 304 305 306 307 306 305 306 305 303 301 301 299 298 298 296 291 286 283 283 286 284 282 280 282 288 290 282 295 302 282 252 236 199 174 189 238 243 247 262 266 271 276 284 287 287 290 289 264
275 276 279 281 287 298 298 297 296 296 297 298 300 302 304 306 306 308 308 306 305 304 303 304 306 307 308 308 308 307 306 305 304 304 304 305 306 307 308 309 309 308 306 306 305 304 304 303 302 301 298 293 288 284 280 279 279 281 283 284 287 292 291 277 297 299 293 259 186 149 174 202 197 253 255 249 248 254 250 254 264 265 275 281 285
273 274 276 281 286 296 298 296 296 298 298 297 299 302 303 305 307 308 307 306 305 304 304 306 308 308 309 309 308 307 306 305 306 306 307 307 308 311 312 312 312 310 308 308 308 306 306 306 305 302 298 290 284 281 279 279 277 280 281 282 288 293 278 275 286 322 329 83 107 140 166 165 182 245 244 237 237 242 245 248 240 239 247 259 274
275 273 275 279 285 290 298 298 297 297 296 295 298 300 302 305 307 307 307 306 305 304 305 308 310 310 309 309 309 308 306 306 308 309 309 310 313 315 317 316 314 312 311 310 310 308 308 307 305 303 295 286 282 279 278 279 278 278 278 281 286 281 271 296 315 349 98 102 97 117 131 131 220 220 248 240 224 240 242 242 240 231 226 230 244
273 273 274 276 282 288 291 296 298 296 294 295 295 300 303 305 306 307 307 306 305 305 307 310 312 312 311 310 310 308 307 309 312 312 312 314 317 318 320 318 316 314 313 313 310 310 310 308 307 302 292 285 280 277 278 278 278 280 278 283 285 278 277 295 327 43 104 111 110 110 114 114 277 237 239 232 240 227 227 232 239 240 234 234 233
271 271 273 276 281 285 288 288 292 296 293 294 297 301 303 305 307 308 308 307 306 307 309 313 314 314 314 314 312 310 309 312 314 315 315 317 320 322 321 320 318 317 315 313 312 311 311 310 308 303 292 284 284 286 284 280 278 279 285 291 285 278 275 283 338 56 89 101 108 113 123 123 208 217 217 217 223 219 213 219 229 237 243 248 238
269 270 273 276 280 282 284 286 286 283 284 292 298 302 305 306 308 308 308 307 307 310 314 316 317 318 318 317 314 312 313 315 315 316 319 321 323 324 323 321 320 319 317 314 314 313 312 310 309 305 297 288 281 285 292 289 284 281 281 284 283 277 267 243 nan nan 130 126 nan 117 122 161 213 215 215 213 217 224 221 223 222 226 235 246 247
269 269 272 278 280 283 284 281 278 277 278 281 289 302 307 307 308 309 309 310 311 315 318 320 319 319 317 314 311 310 312 315 318 319 321 324 326 325 325 323 322 321 318 317 316 315 313 312 311 311 302 288 274 269 295 293 286 285 285 285 283 276 257 191 nan nan nan nan nan nan 122 195 211 226 237 234 235 234 233 233 232 230 232 238 239
269 270 273 276 281 284 282 279 277 276 277 282 292 298 306 309 310 310 312 312 313 317 318 319 318 317 314 310 309 310 313 316 318 322 324 326 326 329 327 326 324 321 319 319 318 319 318 316 317 319 310 286 271 276 291 292 284 280 280 283 279 265 nan nan nan nan nan 135 122 nan 163 201 212 228 243 254 256 256 254 251 246 241 238 241 nan
266 270 273 279 284 286 285 279 277 278 281 286 292 298 305 309 308 312 312 311 315 318 318 318 317 316 312 310 307 308 314 319 320 326 325 328 330 330 329 327 325 323 321 320 322 323 321 320 317 300 281 261 253 280 289 291 286 286 286 278 274 nan nan nan nan 169 157 148 138 nan 235 nan 226 234 240 250 257 261 262 258 251 nan nan nan nan
268 270 275 282 286 287 286 281 276 279 283 287 292 297 300 301 301 302 303 310 315 317 315 317 318 317 314 309 nan 317 320 322 327 328 326 330 332 332 331 328 327 326 325 323 325 326 319 317 314 301 274 265 261 261 285 288 286 282 280 278 nan nan nan nan nan 178 158 147 149 201 245 246 nan nan nan nan nan nan nan nan nan nan nan nan nan
268 272 277 285 286 286 282 278 276 278 284 287 290 293 297 299 299 298 304 310 315 313 318 320 318 316 311 nan 316 319 322 324 325 327 328 329 334 334 333 332 330 330 328 327 327 326 320 317 315 297 266 248 254 254 263 267 264 275 273 268 nan nan nan nan nan 201 168 150 147 246 251 259 264 265 nan nan nan nan nan nan nan nan nan nan nan
271 276 279 280 285 285 280 276 277 nan nan nan nan nan nan nan nan nan 303 nan 307 nan nan nan nan 314 nan nan nan nan 327 325 331 332 328 327 335 336 336 335 334 333 331 328 329 328 321 313 313 288 262 249 260 256 245 242 248 nan nan nan nan nan nan nan 248 236 203 176 163 250 245 250 nan nan nan nan nan nan nan nan nan nan nan nan nan
270 272 274 284 286 284 277 274 nan nan nan nan nan nan nan nan nan nan nan nan nan nan nan nan nan nan 319 nan nan 323 nan 328 326 323 321 327 330 333 333 331 332 336 328 327 327 328 316 317 312 291 286 255 257 268 257 252 251 244 240 nan nan nan nan nan 243 241 231 197 192 267 255 nan nan nan nan nan nan nan nan nan nan nan nan nan nan
267 274 282 286 286 283 277 274 nan nan nan nan nan nan nan nan nan nan nan nan nan nan nan nan nan nan nan nan nan nan nan 321 320 321 320 324 333 335 333 333 334 338 329 332 329 326 321 316 316 310 297 209 209 262 270 265 254 241 235 nan nan 239 237 237 236 240 nan 239 249 284 268 nan nan nan nan nan nan nan nan nan nan nan nan nan nan
270 276 279 280 282 279 275 276 nan nan nan nan nan nan nan nan nan nan nan nan nan nan nan nan nan nan nan nan nan nan nan nan 303 313 nan 329 335 338 335 336 337 339 331 331 331 329 324 319 320 329 299 234 194 235 281 282 263 256 239 235 237 239 234 234 238 245 255 246 278 297 nan nan nan nan nan nan nan nan nan nan nan nan nan nan nan
270 277 276 278 280 280 276 nan nan nan nan nan nan nan nan nan nan 295 nan 317 nan nan nan nan nan nan nan nan nan nan nan nan nan nan nan nan 339 338 335 334 337 340 333 329 333 329 326 325 324 308 303 278 185 248 nan nan 274 261 248 234 237 239 239 233 239 238 254 239 238 292 nan nan nan nan nan nan nan nan nan nan nan nan nan nan nan
273 276 273 276 277 274 276 nan nan nan nan nan nan nan nan nan nan nan nan 315 nan nan nan nan nan nan nan nan nan nan nan nan nan nan nan nan nan 334 336 338 338 341 334 335 333 332 329 328 305 294 288 236 187 nan nan nan 273 nan 247 237 238 241 243 241 238 241 236 243 nan nan nan nan nan nan nan nan nan nan nan nan nan nan nan nan nan
271 271 270 269 271 273 277 279 280 nan nan nan nan nan nan nan nan nan nan 305 nan nan nan nan nan nan nan nan nan nan nan nan nan nan nan nan nan 337 334 340 340 341 337 339 339 331 332 318 298 283 269 245 nan nan nan nan nan nan nan nan nan nan nan 249 246 242 nan nan nan nan nan nan nan nan nan nan nan nan nan nan nan nan nan nan nan
263 267 263 265 268 272 276 276 275 281 nan nan nan nan nan nan nan nan nan nan nan nan nan nan nan nan nan nan nan nan nan nan nan nan nan nan nan nan 342 338 339 341 339 341 332 335 332 324 305 292 287 nan nan nan nan nan nan nan nan nan nan nan nan nan nan nan nan nan nan nan nan nan nan nan nan nan nan nan nan nan nan nan nan nan nan
263 264 259 260 265 274 275 269 277 283 nan nan nan nan nan nan nan nan nan nan nan nan nan nan nan nan nan nan nan nan nan nan nan nan nan nan nan nan nan 338 343 339 340 338 336 335 336 319 306 nan nan nan nan nan nan nan nan nan nan nan nan nan nan nan nan nan nan nan nan nan nan nan nan nan nan nan nan nan nan nan nan nan nan nan nan
247 259 260 262 270 272 267 267 279 283 nan nan nan nan nan nan nan nan nan nan nan nan nan nan nan nan nan nan nan nan nan nan nan nan nan nan nan nan nan 344 341 339 336 333 331 332 321 310 nan nan nan nan nan nan nan nan nan nan nan nan nan nan nan nan nan nan nan nan nan nan nan nan nan nan nan nan nan nan nan nan nan nan nan nan nan
248 246 255 265 262 258 256 266 279 285 285 nan nan nan nan nan nan nan nan nan nan nan nan nan nan nan nan nan nan nan nan nan nan nan nan nan nan nan nan nan 341 334 329 329 333 336 332 nan nan nan 262 nan nan nan nan nan nan nan nan nan nan nan nan nan nan nan nan nan nan nan nan nan nan nan nan nan nan nan nan nan nan nan nan nan nan
246 250 263 265 261 260 263 271 279 279 278 277 nan nan nan nan nan nan nan nan nan nan nan nan nan nan nan nan nan nan nan nan nan nan nan nan nan nan nan nan nan 335 329 333 332 337 325 nan nan nan nan nan nan nan nan nan nan nan nan nan nan nan nan nan nan nan nan nan nan nan nan nan nan nan nan nan nan nan nan nan nan nan nan nan nan
254 257 261 261 263 262 268 273 274 278 279 nan nan nan nan nan nan nan nan nan nan nan nan nan nan nan nan nan nan nan nan nan nan nan nan nan nan nan nan nan nan nan 327 329 328 330 nan nan nan nan nan nan nan nan nan nan nan nan nan nan nan nan nan nan nan nan nan nan nan nan nan nan nan nan nan nan nan nan nan nan nan nan nan nan nan
251 260 266 264 267 268 270 274 279 283 283 nan nan nan nan nan nan nan nan nan nan nan nan nan nan nan nan nan nan nan nan nan nan nan nan nan nan nan nan nan nan nan nan 325 330 nan nan nan nan nan nan 256 nan nan nan nan nan nan nan nan nan nan nan nan nan nan nan nan nan nan nan nan nan nan nan nan nan nan nan nan nan nan nan nan nan
249 260 269 274 274 269 270 271 275 282 282 nan nan nan nan nan nan nan nan nan nan nan nan nan nan nan nan nan nan nan nan nan nan nan nan nan nan nan nan nan nan nan nan nan nan nan nan nan nan nan nan nan nan nan nan nan nan nan nan nan nan nan nan nan nan nan nan nan nan nan nan nan nan nan nan nan nan nan nan nan nan nan nan nan nan
250 265 269 269 266 264 267 271 277 279 nan nan nan nan nan nan nan nan nan nan nan nan nan nan nan nan nan nan nan nan nan nan nan nan nan nan nan nan nan nan nan nan nan nan nan nan nan nan nan nan 255 263 255 nan nan nan nan nan nan nan nan nan nan nan nan nan nan nan nan nan nan nan nan nan nan nan nan nan nan nan nan nan nan nan nan
254 263 269 271 271 268 267 270 275 nan nan nan nan nan nan nan nan nan nan nan nan nan nan nan nan nan nan nan nan nan nan nan nan nan nan nan nan nan nan nan nan nan nan nan nan nan nan nan nan nan 265 240 nan nan nan nan nan nan 230 nan nan nan nan nan nan nan nan nan nan nan nan nan nan nan nan nan nan nan nan nan nan nan nan nan nan
255 263 267 272 279 281 277 277 277 nan nan nan nan nan nan nan nan nan nan nan nan nan nan nan nan nan nan nan nan nan nan nan nan nan nan nan nan nan nan nan nan nan nan nan nan nan nan nan nan nan nan nan nan nan nan nan nan nan nan nan nan nan nan nan nan nan nan nan nan nan nan nan nan nan nan nan nan nan nan nan nan nan nan nan nan
244 263 270 277 279 277 278 277 274 nan nan nan nan nan nan nan nan nan nan nan nan nan nan nan nan nan nan nan nan nan nan nan nan nan nan nan nan nan nan nan nan nan nan nan nan nan nan nan nan nan nan nan nan nan nan nan nan nan nan nan nan nan nan nan nan nan nan nan nan nan nan nan nan nan nan nan nan nan nan nan nan nan nan nan nan
244 260 267 275 279 279 276 276 nan nan nan nan nan nan nan nan nan nan nan nan nan nan nan nan nan nan nan nan nan nan nan nan nan nan nan nan nan nan nan nan nan nan nan nan nan nan nan nan nan nan nan nan nan nan nan nan nan nan nan nan nan nan nan nan nan nan nan nan nan nan nan nan nan nan nan nan nan nan nan nan nan nan nan nan nan
241 253 263 275 278 279 277 278 282 287 nan nan nan nan nan nan nan nan nan nan nan nan nan nan nan nan nan nan nan nan nan nan nan nan nan nan nan nan nan nan nan nan nan nan nan nan nan nan nan nan nan nan nan nan nan nan nan nan nan nan nan nan nan nan nan nan nan nan nan nan nan nan nan nan nan nan nan nan nan nan nan nan nan nan nan
260 262 266 274 272 281 280 283 287 294 297 nan nan nan nan nan nan nan nan nan nan nan nan nan nan nan nan nan nan nan nan nan nan nan nan nan nan nan nan nan nan nan nan nan nan nan nan nan nan nan nan nan nan nan nan nan nan nan nan nan nan nan nan nan nan nan nan nan nan nan nan nan nan nan nan nan nan nan nan nan nan nan nan nan nan
267 261 271 279 274 276 279 282 286 292 nan nan nan nan nan nan nan nan nan nan nan nan nan nan nan nan nan nan nan nan nan nan nan nan nan nan nan nan nan nan nan nan nan nan nan nan nan nan nan nan nan nan nan nan nan nan nan nan nan nan nan nan nan nan nan nan nan nan nan nan nan nan nan nan nan nan nan nan nan nan nan nan nan nan nan
268 271 266 272 278 280 282 287 291 290 nan nan nan nan nan nan nan nan nan nan nan nan nan nan nan nan nan nan nan nan nan nan nan nan nan nan nan nan nan nan nan nan nan nan nan nan nan nan nan nan nan nan nan nan nan nan nan nan nan nan nan nan nan nan nan nan nan nan nan nan nan nan nan nan nan nan nan nan nan nan nan nan nan nan nan
261 265 263 266 287 286 286 291 290 289 nan nan nan nan nan nan nan nan nan nan nan nan nan nan nan nan nan nan nan nan nan nan nan nan nan nan nan nan nan nan nan nan nan nan nan nan nan nan nan nan nan nan nan nan nan nan nan nan nan nan nan nan nan nan nan nan nan nan nan nan nan nan nan nan nan nan nan nan nan nan nan nan nan nan nan
270 270 269 268 280 281 288 290 293 291 nan nan nan nan nan nan nan nan nan nan nan nan nan nan nan nan nan nan nan nan nan nan nan nan nan nan nan nan nan nan nan nan nan nan nan nan nan nan nan nan nan nan nan nan nan nan nan nan nan nan nan nan nan nan nan nan nan nan nan nan nan nan nan nan nan nan nan nan nan nan nan nan nan nan nan
268 270 258 253 259 269 288 294 294 nan nan nan nan nan nan nan nan nan nan nan nan nan nan nan nan nan nan nan nan nan nan nan nan nan nan nan nan nan nan nan nan nan nan nan nan nan nan nan nan nan nan nan nan nan nan nan nan nan nan nan nan nan nan nan nan nan nan nan nan nan nan nan nan nan nan nan nan nan nan nan nan nan nan nan nan
272 277 279 288 281 297 300 295 293 287 nan nan nan nan nan nan nan nan nan nan nan nan nan nan nan nan nan nan nan nan nan nan nan nan nan nan nan nan nan nan nan nan nan nan nan nan nan nan nan nan nan nan nan nan nan nan nan nan nan nan nan nan nan nan nan nan nan nan nan nan nan nan nan nan nan nan nan nan nan nan nan nan nan nan nan